IONIA-WX Weather Reports


Display with metric or nautical units.
time (UTC)temp
F
wind
direction
speed
MPH
gust
MPH
rain 1hr
in
rain 24hr
in
rain mn
in
humidity
%
barometer
mb
20260509031517 49 197 6.0 0.0 0.00 0.00 0.00 39 977.7
20260509030045 49 199 6.0 0.0 0.00 0.00 0.00 39 977.7
20260509024517 50 217 5.0 0.0 0.00 0.00 0.00 29 978.3
20260509023035 50 213 6.0 0.0 0.00 0.00 0.00 35 978.0
20260509021517 50 228 6.0 0.0 0.00 0.00 0.00 35 977.9
20260509020044 51 234 5.0 0.0 0.00 0.00 0.00 35 977.9
20260509014517 51 241 5.0 0.0 0.00 0.00 0.00 35 978.0
20260509013031 52 245 5.0 0.0 0.00 0.00 0.00 35 978.0
20260509011516 52 254 5.0 0.0 0.00 0.00 0.00 35 978.0
20260509010040 53 257 5.0 0.0 0.00 0.00 0.00 35 978.0
20260509004516 54 261 5.0 0.0 0.00 0.00 0.00 29 977.9
20260509003035 56 257 5.0 0.0 0.00 0.00 0.00 29 979.0
20260509001516 56 259 6.0 0.0 0.00 0.00 0.00 29 979.0
20260509000045 58 262 7.0 0.0 0.00 0.00 0.00 29 979.0
20260508234516 59 263 8.0 0.0 0.00 0.00 0.00 23 978.3
20260508233036 60 265 9.0 0.0 0.00 0.00 0.00 23 978.5
20260508231518 60 263 10.0 0.0 0.00 0.00 0.00 23 978.5
20260508230041 60 264 10.0 0.0 0.00 0.00 0.00 23 978.5
20260508224518 61 261 11.0 0.0 0.00 0.00 0.00 22 978.7
20260508223036 61 260 12.0 0.0 0.00 0.00 0.00 22 979.5
20260508221519 61 261 12.0 0.0 0.00 0.00 0.00 22 979.5
20260508220040 61 259 13.0 0.0 0.00 0.00 0.00 22 979.5
20260508214519 62 251 12.0 0.0 0.00 0.00 0.00 22 979.7
20260508213036 62 244 11.0 0.0 0.00 0.00 0.00 23 979.5
20260508211518 62 252 12.0 0.0 0.00 0.00 0.00 23 979.6
20260508210044 62 251 12.0 0.0 0.00 0.00 0.00 23 979.6
20260508204519 62 247 11.0 0.0 0.00 0.00 0.00 23 979.3
20260508203037 62 248 11.0 0.0 0.00 0.00 0.00 22 979.4
20260508201518 62 231 12.0 0.0 0.00 0.00 0.00 22 979.4
20260508200041 62 230 12.0 0.0 0.00 0.00 0.00 21 979.4
20260508194519 62 231 11.0 0.0 0.00 0.00 0.00 26 980.0
20260508193033 62 236 10.0 0.0 0.00 0.00 0.00 26 980.0
20260508191518 62 242 9.0 0.0 0.00 0.00 0.00 26 980.0
20260508190041 62 244 9.0 0.0 0.00 0.00 0.00 26 980.0
20260508184518 61 246 10.0 0.0 0.00 0.00 0.00 29 980.4
20260508183038 61 245 11.0 0.0 0.00 0.00 0.00 30 980.1
20260508181518 61 245 10.0 0.0 0.00 0.00 0.00 30 980.1
20260508180044 60 239 10.0 0.0 0.00 0.00 0.00 30 980.1
20260508174519 60 237 10.0 0.0 0.00 0.00 0.00 29 981.0
20260508173037 59 242 10.0 0.0 0.00 0.00 0.00 29 981.0
20260508171518 59 243 9.0 0.0 0.00 0.00 0.00 29 981.0
20260508170043 58 243 10.0 0.0 0.00 0.00 0.00 31 981.0
20260508164518 58 241 10.0 0.0 0.00 0.00 0.00 34 981.3
20260508163036 57 230 10.0 0.0 0.00 0.00 0.00 34 981.4
20260508161518 56 226 10.0 0.0 0.00 0.00 0.00 34 981.3
20260508160045 56 226 9.0 0.0 0.00 0.00 0.00 34 981.3
20260508154519 55 221 8.0 0.0 0.00 0.00 0.00 36 982.4
20260508153038 54 206 9.0 0.0 0.00 0.00 0.00 42 981.3
20260508151518 53 199 8.0 0.0 0.00 0.00 0.00 42 981.3
20260508150044 52 200 6.0 0.0 0.00 0.00 0.00 42 981.3
20260508144519 51 193 5.0 0.0 0.00 0.00 0.00 55 981.8
20260508143035 50 200 5.0 0.0 0.00 0.00 0.00 63 981.8
20260508141519 49 192 6.0 0.0 0.00 0.00 0.00 63 981.8
20260508140047 48 187 7.0 0.0 0.00 0.00 0.00 66 981.6
20260508134518 47 186 6.0 0.0 0.00 0.00 0.00 77 981.3
20260508133033 45 189 5.0 0.0 0.00 0.00 0.00 77 981.3
20260508131519 43 189 5.0 0.0 0.00 0.00 0.00 77 981.3
20260508130047 42 187 5.0 0.0 0.00 0.00 0.00 77 981.3
20260508124519 41 180 4.0 0.0 0.00 0.00 0.00 90 981.0
20260508123037 41 197 3.0 0.0 0.00 0.00 0.00 84 981.1
20260508121518 39 204 2.0 0.0 0.00 0.00 0.00 84 981.1
20260508120051 37 211 1.0 0.0 0.00 0.00 0.00 84 981.1
20260508114518 36 225 1.0 0.0 0.00 0.00 0.00 82 980.5
20260508113039 35 232 2.0 0.0 0.00 0.00 0.00 81 981.3
20260508111518 36 194 3.0 0.0 0.00 0.00 0.00 81 981.4
20260508110040 35 197 2.0 0.0 0.00 0.00 0.00 81 981.4
20260508104521 35 236 0.0 0.0 0.00 0.00 0.00 80 980.8
20260508103038 35 339 1.0 0.0 0.00 0.00 0.00 78 981.7
20260508101522 36 331 2.0 0.0 0.00 0.00 0.00 78 981.7
20260508100040 36 319 2.0 0.0 0.00 0.00 0.00 78 981.7
20260508094520 36 322 2.0 0.0 0.00 0.00 0.00 82 981.0
20260508093034 36 328 2.0 0.0 0.00 0.00 0.00 75 981.8
20260508091521 37 232 3.0 0.0 0.00 0.00 0.00 75 981.9
20260508090044 37 225 4.0 0.0 0.00 0.00 0.00 75 981.9
20260508084520 37 227 4.0 0.0 0.00 0.00 0.00 79 981.2
20260508083038 37 214 4.0 0.0 0.00 0.00 0.00 71 981.1
20260508081520 38 215 4.0 0.0 0.00 0.00 0.00 71 981.2
20260508080046 38 221 4.0 0.0 0.00 0.00 0.00 71 981.2
20260508074521 39 235 4.0 0.0 0.00 0.00 0.00 71 981.6
20260508073039 39 239 4.0 0.0 0.00 0.00 0.00 71 981.6
20260508071520 39 216 4.0 0.0 0.00 0.00 0.00 71 981.6
20260508070046 39 211 5.0 0.0 0.00 0.00 0.00 71 981.6
20260508064519 40 200 4.0 0.0 0.00 0.00 0.00 64 981.6
20260508063035 41 188 3.0 0.0 0.00 0.00 0.00 64 982.1
20260508061520 41 173 3.0 0.0 0.00 0.00 0.00 64 982.1
20260508060051 41 162 3.0 0.0 0.00 0.00 0.00 64 982.1
20260508054519 41 159 4.0 0.0 0.00 0.00 0.00 64 982.7
20260508053039 41 157 5.0 0.0 0.00 0.00 0.00 61 982.3
20260508051519 41 129 4.0 0.0 0.00 0.00 0.00 61 982.3
20260508050046 41 115 4.0 0.0 0.00 0.00 0.00 61 982.3
20260508044518 41 117 3.0 0.0 0.00 0.00 0.00 60 982.6
20260508043034 41 112 1.0 0.0 0.00 0.00 0.00 56 981.9
20260508041518 42 34 1.0 0.0 0.00 0.00 0.00 56 981.9
20260508040050 42 8 3.0 0.0 0.00 0.00 0.00 56 981.9
20260508034518 42 356 3.0 0.0 0.00 0.00 0.00 53 982.4
20260508033033 43 346 2.0 0.0 0.00 0.00 0.00 47 982.6